Location: B?jaj?g
(11.7167°N, 92.6667°E)
Time: 22:23:14
(UTC+00:00)

Tsikada Rocket - Pass Details

Date: 18 September 2020
Orbit: 958 x 1009 km, 82.9° (Epoch: 30 October)

Event Time Altitude Azimuth Distance (km) Brightness Sun altitude
Rises 12:50:04 0° 351° (N) 3,629 7.2 -16.0°
Reaches altitude 10° 12:52:34 10° 348° (NNW) 2,685 6.5 -16.6°
Maximum altitude 12:58:38 66° 267° (W) 1,044 4.4 -18.1°
Drops below altitude 10° 13:04:46 10° 186° (S) 2,708 6.3 -19.6°
Sets 13:07:18 0° 183° (S) 3,662 7.0 -20.2°
